Regional Weather Roundup
Issued by NWS

Home | Current Version | Previous Version | Text Only | Print | Product List | Glossary On
Versions: 1 2 3 4 5 6 7 8 9 10 11 12 13 14 15 16 17 18 19 20 21 22 23 24 25 26 27 28 29 30 31 32 33 34 35 36 37 38 39 40 41 42 43 44 45 46 47 48 49 50
000
ASUS42 KFFC 042003
RWRGA
WEATHER ROUNDUP FOR GEORGIA
NATIONAL WEATHER SERVICE PEACHTREE CITY GA
300 PM EST WED MAR 04 2015

NOTE: "FAIR" INDICATES FEW OR NO CLOUDS BELOW 12,000 FEET WITH NO
SIGNIFICANT WEATHER AND/OR OBSTRUCTIONS TO VISIBILITY.

* = USE WITH CAUTION. THE STATIONS MARKED WITH AN ASTERISK MAY NOT
REPORT WEATHER SUCH AS PRECIPITATION, FOG, OR THUNDER AND ARE NOT
QUALITY CONTROLLED BY NWS.

THE REMARK "TC" DENOTES TEMPERATURE READING IN DEGREES CELSIUS.

GAZ001>058-042100-
NORTH GEORGIA

CITY           SKY/WX    TMP DP  RH WIND       PRES   REMARKS
ATLANTA        PTSUNNY   76  58  53 S16       29.95F
ATHENS         CLOUDY    74  59  59 SW6       29.95F
CHAMBLEE       PTSUNNY   76  60  57 SW10G20   29.95F
PEACHTREE CITY PTSUNNY   77  58  51 SW10G20   29.96F
ROME           CLOUDY    72  62  71 S6        29.89F
WEST ATLANTA   PTSUNNY   74  59  59 SW12G18   29.94F
GAINESVILLE    PTSUNNY   70  60  70 S9        29.96F
CARTERSVILLE   PTSUNNY   73  59  61 S8G20     29.93F


CITY           SKY/WX    TMP DP  RH WIND       PRES   REMARKS
DALTON*        PTSUNNY   72  63  73 SW6G21    29.90F
LAWRENCEVILLE* PTSUNNY   72  55  56 SW8G17    29.95F
MARIETTA       PTSUNNY   73  61  64 SW12      29.95
KENNESAW*      MOSUNNY   73  61  64 SW14G22   29.96F
$$

GAZ059>098-102>109-042100-
CENTRAL GEORGIA

CITY           SKY/WX    TMP DP  RH WIND       PRES   REMARKS
AUGUSTA-BUSH   MOSUNNY   79  59  50 SW15G24   29.98F
AUGUSTA-DANIEL PTSUNNY   78  59  51 SW10G22   29.99F
COLUMBUS       LGT RAIN  68  63  84 SW16G22   30.01F
MACON          CLOUDY    73  61  65 S13G24    30.00F
ROBINS AFB     MOSUNNY   78  61  57 SW17      30.00F


CITY           SKY/WX    TMP DP  RH WIND       PRES   REMARKS
LAGRANGE*      PTSUNNY   80  66  62 SW14G20   29.96F
SYLVANIA*      MOSUNNY   81  61  50 SW8       30.01F
MILLEDGEVILLE* PTSUNNY   77  64  65 S5        29.99F
$$

GAZ099>101-110>166-042100-
SOUTH GEORGIA

CITY           SKY/WX    TMP DP  RH WIND       PRES   REMARKS
SAVANNAH       PTSUNNY   83  58  42 S17G24    30.02F
VALDOSTA       MOSUNNY   82  60  47 S13G25    30.04F
ALMA           PTSUNNY   81  58  45 SW13      30.02F
ST SIMONS      MOSUNNY   68  62  81 S15       30.05F
FT STEWART     MOSUNNY   83  60  46 SW14      30.00F
ALBANY         PTSUNNY   79  61  53 SW10      30.03F
HUNTER AFB     MOSUNNY   84  62  46 SW14G23   29.99
MOODY AFB      MOSUNNY   82  58  44 SW18G28   30.02F
BRUNSWICK      PTSUNNY   82  55  39 SW14G23   30.04F


CITY           SKY/WX    TMP DP  RH WIND       PRES   REMARKS
BAINBRIDGE*    MOSUNNY   84  64  51 SW14G21   30.01F
MOULTRIE*      MOSUNNY   81  61  50 SW10G21   30.04F
VIDALIA*       PTSUNNY   81  59  47 SW14G23   30.02F
WAYCROSS*      PTSUNNY   86  64  46 SW10G22   30.03F
DOUGLAS*       MOSUNNY   82  59  44 SW16G26   30.04F
$$


USA.gov is the U.S. government's official web portal to all federal, state and local government web resources and services.